Lid_Strength_Index
7 9 11 9 8 8 9 10 11 10 8 9 8 8 7 6 6 5 4 4 5 5 4 3 2 2 2 2 1 1 1 0 0 1 1 2 4 1 -0 -0 -1 -1 -0 -0
9 9 7 8 9 9 10 10 10 9 8 9 8 9 7 6 6 6 5 4 4 4 4 4 3 2 2 2 1 1 1 1 0 0 0 0 2 1 -0 -1 -1 -1 -1 -1
9 8 7 9 10 10 10 10 10 10 9 9 9 10 8 6 6 5 5 4 3 4 5 4 4 3 2 2 2 1 1 1 0 0 1 4 4 1 1 0 0 -0 -1 -0
9 7 8 9 9 9 11 9 9 10 10 12 9 13 9 8 7 6 5 5 4 4 4 4 4 3 3 3 1 1 1 1 1 1 2 3 3 2 1 0 -0 -0 -1 -1
8 8 9 9 8 8 9 8 9 9 10 11 10 12 10 9 8 7 5 5 4 3 3 4 4 3 3 2 2 2 2 2 1 3 2 3 1 1 0 0 -0 -1 -1 -1
8 7 8 8 7 7 7 8 9 10 10 13 10 11 11 9 8 6 5 5 4 3 3 3 3 3 3 2 2 1 2 3 3 3 3 3 1 1 1 1 1 0 0 -0
9 9 7 6 8 7 8 9 13 14 14 15 9 11 10 7 7 6 6 5 5 5 3 3 3 3 3 3 2 2 2 4 4 4 4 4 2 1 1 1 1 1 1 0
12 13 9 7 8 10 9 9 12 16 15 13 11 13 9 7 6 6 5 5 4 4 3 4 3 3 3 3 2 2 3 3 4 5 5 5 2 1 1 0 0 0 0 -0
13 12 9 8 8 8 10 11 9 11 11 13 11 9 8 7 7 6 6 6 5 5 4 4 3 2 3 3 2 2 3 3 4 5 5 5 3 0 1 0 -0 0 -0 -0
12 14 11 10 8 8 9 9 13 12 16 17 13 12 11 10 9 7 7 6 5 5 4 4 3 2 2 2 2 2 3 3 3 5 5 5 3 0 0 0 0 -0 -0 -1
11 12 12 11 12 13 11 10 11 12 13 15 15 13 9 9 8 8 7 6 6 5 4 4 3 3 2 2 2 2 2 3 3 4 6 5 4 1 0 0 0 0 -0 -1
11 11 14 13 11 10 12 13 13 15 14 13 13 13 9 9 8 7 7 6 6 5 4 4 3 3 2 3 2 2 2 2 2 3 5 5 4 1 1 0 0 -0 0 -0
11 13 16 15 12 10 12 13 14 13 12 15 17 13 9 9 8 8 8 7 6 5 4 4 4 4 3 2 2 2 2 2 1 2 4 5 4 2 1 0 0 -0 0 -0
9 12 15 17 15 12 15 13 13 14 15 14 14 13 10 9 10 9 8 7 6 5 4 4 4 4 3 3 2 2 2 1 1 2 3 5 4 3 1 0 0 0 -0 0
10 14 13 13 12 13 14 14 14 15 13 15 13 13 11 10 12 11 8 8 6 5 5 4 4 4 3 3 2 2 1 1 1 2 2 3 4 3 1 1 0 0 0 0
10 13 12 13 11 11 13 12 11 12 13 14 13 14 10 9 9 10 9 8 7 6 5 4 4 3 4 3 3 2 2 2 1 2 2 1 1 2 1 1 1 0 0 0
10 10 12 14 12 12 14 11 10 10 10 10 14 12 10 10 9 8 9 9 9 6 4 4 4 3 3 3 2 2 2 1 1 2 1 1 1 1 1 1 1 1 1 0
9 9 10 13 12 17 11 9 9 10 9 8 9 9 8 9 8 8 8 9 8 6 4 4 3 3 3 2 2 2 1 2 2 2 2 1 1 1 1 1 1 1 1 1
8 9 12 15 14 12 11 9 10 10 10 7 8 7 7 7 7 9 7 6 6 5 3 3 2 2 2 2 2 2 2 2 2 2 2 1 1 1 1 2 1 1 1 1
9 8 11 13 16 17 11 8 7 8 13 7 7 7 7 6 10 9 5 6 5 5 4 3 2 2 2 2 2 2 3 3 4 3 2 1 1 1 1 1 1 1 1 1
11 12 14 14 15 12 8 7 7 14 11 6 6 6 6 7 6 4 4 4 3 3 3 2 2 2 2 2 2 3 3 4 4 4 4 4 2 1 1 2 3 3 3 4
12 13 14 13 15 17 7 8 11 7 6 6 6 6 6 5 4 4 4 3 3 3 3 2 2 2 2 2 2 3 5 5 4 5 5 5 6 6 5 5 5 5 5 6
13 10 12 11 12 7 6 6 5 5 6 6 5 5 5 5 5 4 4 3 3 3 3 3 2 2 2 1 1 2 5 4 5 5 6 6 6 5 6 6 6 6 6 5
10 9 12 12 9 9 7 6 6 6 6 5 5 4 4 4 4 4 3 3 3 3 3 2 2 3 2 2 1 1 1 2 4 5 6 6 6 7 6 6 7 7 7 6
10 10 11 11 9 8 7 7 6 6 5 5 4 4 4 4 4 3 3 3 3 2 2 2 2 2 2 2 2 1 1 1 4 5 6 7 8 8 8 8 7 7 7 7
9 11 12 12 9 9 9 7 6 7 6 5 4 4 3 3 3 3 3 3 2 2 2 2 2 2 2 2 2 1 1 1 2 4 6 7 8 7 7 9 9 12 11 11